WXM80 ListenWXM80 Stop

You find our weather info also at:

UK Metoffice

WeatherCloud

Weather Underground

Northeastern Weather Network

AWEKAS

Citizen Weather Observer Program (CWOP)

HAMweather, WeatherForYou, PWS Weather


Weather Underground History page Text

Daily Summary for January 8, 2017 Units:  Both    English   Metric
« Previous Day
Next Day »
Daily Weekly Monthly Yearly Custom
  High: Low: Average:
Temperature: 23.9 °F /  -4.5 °C 17.9 °F /  -7.8 °C 20.9 °F /  -6.2 °C
Dew Point: 17.3 °F /  -8.2 °C 7.1 °F /  -13.8 °C 11.6 °F /  -11.3 °C
Humidity: 85 % 52 % 68 %
Wind Speed: 13.0 mph /  20.9 km/h - 7 mph /  11.3 km/h
Wind Gust: 29.0 mph /  46.7 km/h - -
Wind:- - WNW
Pressure: 30.55 in /  1034.4 hPa 30.11 in /  1019.5 hPa -
Precipitation: 0.00 in /  0 mm    
Historical Graphs
 
 
Tabular Data for January 8, 2017
Time Temperature Dew Point Pressure Wind Wind Speed Wind Gust Humidity Rainfall Rate (Hourly)
00:03 21.1 °F /  -6.1 °C 17.3 °F /  -8.2 °C 30.12 in /  1019.9 hPa North 6.0 mph /  9.7 km/h 29.0 mph /  46.7 km/h 85 % 0.00 in /  0 mm
00:08 21.2 °F /  -6 °C 16.8 °F /  -8.4 °C 30.11 in /  1019.5 hPa WNW 5.9 mph /  9.5 km/h 29.0 mph /  46.7 km/h 83 % 0.00 in /  0 mm
00:13 21.3 °F /  -5.9 °C 16.9 °F /  -8.4 °C 30.12 in /  1019.9 hPa NNW 4.2 mph /  6.8 km/h 29.0 mph /  46.7 km/h 83 % 0.00 in /  0 mm
00:18 21.2 °F /  -6 °C 17.1 °F /  -8.3 °C 30.12 in /  1019.9 hPa NNW 7.5 mph /  12.1 km/h 29.0 mph /  46.7 km/h 84 % 0.00 in /  0 mm
00:23 21.2 °F /  -6 °C 16.8 °F /  -8.4 °C 30.12 in /  1019.9 hPa NNW 6.1 mph /  9.8 km/h 29.0 mph /  46.7 km/h 83 % 0.00 in /  0 mm
00:28 21.2 °F /  -6 °C 16.8 °F /  -8.4 °C 30.11 in /  1019.5 hPa NNW 2.6 mph /  4.2 km/h 29.0 mph /  46.7 km/h 83 % 0.00 in /  0 mm
00:34 21.1 °F /  -6.1 °C 17.0 °F /  -8.3 °C 30.11 in /  1019.5 hPa NW 6.8 mph /  10.9 km/h 29.0 mph /  46.7 km/h 84 % 0.00 in /  0 mm
00:39 21.1 °F /  -6.1 °C 16.7 °F /  -8.5 °C 30.12 in /  1019.9 hPa North 6.3 mph /  10.1 km/h 29.0 mph /  46.7 km/h 83 % 0.00 in /  0 mm
00:44 21.1 °F /  -6.1 °C 17.0 °F /  -8.3 °C 30.12 in /  1019.9 hPa NW 2.0 mph /  3.2 km/h 29.0 mph /  46.7 km/h 84 % 0.00 in /  0 mm
00:49 21.1 °F /  -6.1 °C 17.3 °F /  -8.2 °C 30.12 in /  1019.9 hPa NW 2.0 mph /  3.2 km/h 29.0 mph /  46.7 km/h 85 % 0.00 in /  0 mm
00:54 21.0 °F /  -6.1 °C 17.2 °F /  -8.2 °C 30.12 in /  1019.9 hPa NNW 5.0 mph /  8 km/h 29.0 mph /  46.7 km/h 85 % 0.00 in /  0 mm
00:59 21.0 °F /  -6.1 °C 16.9 °F /  -8.4 °C 30.12 in /  1019.9 hPa North 6.9 mph /  11.1 km/h 29.0 mph /  46.7 km/h 84 % 0.00 in /  0 mm
01:04 21.0 °F /  -6.1 °C 16.9 °F /  -8.4 °C 30.12 in /  1019.9 hPa WSW 4.2 mph /  6.8 km/h 29.0 mph /  46.7 km/h 84 % 0.00 in /  0 mm
01:09 21.0 °F /  -6.1 °C 16.4 °F /  -8.7 °C 30.12 in /  1019.9 hPa NW 5.3 mph /  8.5 km/h 29.0 mph /  46.7 km/h 82 % 0.00 in /  0 mm
01:14 20.9 °F /  -6.2 °C 16.8 °F /  -8.4 °C 30.12 in /  1019.9 hPa NNW 5.0 mph /  8 km/h 10.0 mph /  16.1 km/h 84 % 0.00 in /  0 mm
01:19 20.9 °F /  -6.2 °C 16.5 °F /  -8.6 °C 30.12 in /  1019.9 hPa NW 6.0 mph /  9.7 km/h 29.0 mph /  46.7 km/h 83 % 0.00 in /  0 mm
01:24 20.9 °F /  -6.2 °C 16.8 °F /  -8.4 °C 30.12 in /  1019.9 hPa NNW 5.0 mph /  8 km/h 13.0 mph /  20.9 km/h 84 % 0.00 in /  0 mm
01:29 21.0 °F /  -6.1 °C 16.4 °F /  -8.7 °C 30.13 in /  1020.2 hPa North 8.0 mph /  12.9 km/h 16.0 mph /  25.7 km/h 82 % 0.00 in /  0 mm
01:39 21.0 °F /  -6.1 °C 16.6 °F /  -8.6 °C 30.14 in /  1020.5 hPa NNW 8.6 mph /  13.8 km/h 29.0 mph /  46.7 km/h 83 % 0.00 in /  0 mm
01:44 21.0 °F /  -6.1 °C 16.9 °F /  -8.4 °C 30.14 in /  1020.5 hPa North 4.5 mph /  7.2 km/h 29.0 mph /  46.7 km/h 84 % 0.00 in /  0 mm
01:49 21.0 °F /  -6.1 °C 16.6 °F /  -8.6 °C 30.14 in /  1020.5 hPa NNW 6.0 mph /  9.7 km/h 16.0 mph /  25.7 km/h 83 % 0.00 in /  0 mm
01:54 20.9 °F /  -6.2 °C 16.3 °F /  -8.7 °C 30.14 in /  1020.5 hPa NNW 7.0 mph /  11.3 km/h 13.0 mph /  20.9 km/h 82 % 0.00 in /  0 mm
01:59 20.8 °F /  -6.2 °C 16.2 °F /  -8.8 °C 30.15 in /  1020.9 hPa NNW 9.2 mph /  14.8 km/h 29.0 mph /  46.7 km/h 82 % 0.00 in /  0 mm
02:04 20.7 °F /  -6.3 °C 15.8 °F /  -9 °C 30.15 in /  1020.9 hPa North 8.2 mph /  13.2 km/h 29.0 mph /  46.7 km/h 81 % 0.00 in /  0 mm
02:09 20.7 °F /  -6.3 °C 15.7 °F /  -9.1 °C 30.15 in /  1020.9 hPa NNW 7.0 mph /  11.3 km/h 12.0 mph /  19.3 km/h 81 % 0.00 in /  0 mm
02:14 20.6 °F /  -6.3 °C 15.9 °F /  -8.9 °C 30.15 in /  1020.9 hPa NW 5.0 mph /  8 km/h 15.0 mph /  24.1 km/h 82 % 0.00 in /  0 mm
02:19 20.4 °F /  -6.4 °C 15.8 °F /  -9 °C 30.16 in /  1021.2 hPa NW 5.0 mph /  8 km/h 17.0 mph /  27.4 km/h 82 % 0.00 in /  0 mm
02:24 20.3 °F /  -6.5 °C 16.0 °F /  -8.9 °C 30.16 in /  1021.2 hPa WNW 3.6 mph /  5.8 km/h 29.0 mph /  46.7 km/h 83 % 0.00 in /  0 mm
02:29 20.2 °F /  -6.6 °C 15.9 °F /  -8.9 °C 30.16 in /  1021.2 hPa NW 7.0 mph /  11.3 km/h 16.0 mph /  25.7 km/h 83 % 0.00 in /  0 mm
02:34 20.0 °F /  -6.7 °C 15.7 °F /  -9.1 °C 30.16 in /  1021.2 hPa NW 5.0 mph /  8 km/h 10.0 mph /  16.1 km/h 83 % 0.00 in /  0 mm
02:44 19.9 °F /  -6.7 °C 15.6 °F /  -9.1 °C 30.16 in /  1021.2 hPa NNW 5.0 mph /  8 km/h 12.0 mph /  19.3 km/h 83 % 0.00 in /  0 mm
02:49 19.8 °F /  -6.8 °C 15.5 °F /  -9.2 °C 30.16 in /  1021.2 hPa NNW 3.0 mph /  4.8 km/h 10.0 mph /  16.1 km/h 83 % 0.00 in /  0 mm
02:54 19.7 °F /  -6.8 °C 15.7 °F /  -9.1 °C 30.16 in /  1021.2 hPa NW 6.0 mph /  9.7 km/h 15.0 mph /  24.1 km/h 84 % 0.00 in /  0 mm
02:59 19.7 °F /  -6.8 °C 15.4 °F /  -9.2 °C 30.16 in /  1021.2 hPa WNW 4.4 mph /  7.1 km/h 29.0 mph /  46.7 km/h 83 % 0.00 in /  0 mm
03:04 19.7 °F /  -6.8 °C 15.4 °F /  -9.2 °C 30.16 in /  1021.2 hPa North 3.2 mph /  5.1 km/h 29.0 mph /  46.7 km/h 83 % 0.00 in /  0 mm
03:09 19.6 °F /  -6.9 °C 15.3 °F /  -9.3 °C 30.16 in /  1021.2 hPa North 3.6 mph /  5.8 km/h 29.0 mph /  46.7 km/h 83 % 0.00 in /  0 mm
03:14 19.5 °F /  -6.9 °C 15.2 °F /  -9.3 °C 30.16 in /  1021.2 hPa NW 6.3 mph /  10.1 km/h 29.0 mph /  46.7 km/h 83 % 0.00 in /  0 mm
03:19 19.5 °F /  -6.9 °C 14.9 °F /  -9.5 °C 30.16 in /  1021.2 hPa NW 6.2 mph /  10 km/h 29.0 mph /  46.7 km/h 82 % 0.00 in /  0 mm
03:24 19.5 °F /  -6.9 °C 15.2 °F /  -9.3 °C 30.16 in /  1021.2 hPa NW 4.9 mph /  7.9 km/h 29.0 mph /  46.7 km/h 83 % 0.00 in /  0 mm
03:29 19.5 °F /  -6.9 °C 15.2 °F /  -9.3 °C 30.16 in /  1021.2 hPa WNW 6.2 mph /  10 km/h 29.0 mph /  46.7 km/h 83 % 0.00 in /  0 mm
03:35 19.5 °F /  -6.9 °C 15.2 °F /  -9.3 °C 30.16 in /  1021.2 hPa NNW 3.3 mph /  5.3 km/h 29.0 mph /  46.7 km/h 83 % 0.00 in /  0 mm
03:40 19.4 °F /  -7 °C 15.1 °F /  -9.4 °C 30.17 in /  1021.6 hPa WNW 4.8 mph /  7.7 km/h 29.0 mph /  46.7 km/h 83 % 0.00 in /  0 mm
03:45 19.4 °F /  -7 °C 15.1 °F /  -9.4 °C 30.16 in /  1021.2 hPa WNW 6.0 mph /  9.7 km/h 29.0 mph /  46.7 km/h 83 % 0.00 in /  0 mm
03:50 19.4 °F /  -7 °C 15.1 °F /  -9.4 °C 30.17 in /  1021.6 hPa North 5.1 mph /  8.2 km/h 29.0 mph /  46.7 km/h 83 % 0.00 in /  0 mm
03:55 19.4 °F /  -7 °C 15.1 °F /  -9.4 °C 30.17 in /  1021.6 hPa West 5.0 mph /  8 km/h 29.0 mph /  46.7 km/h 83 % 0.00 in /  0 mm
04:00 19.3 °F /  -7.1 °C 15.0 °F /  -9.4 °C 30.17 in /  1021.6 hPa North 4.3 mph /  6.9 km/h 29.0 mph /  46.7 km/h 83 % 0.00 in /  0 mm
04:05 19.2 °F /  -7.1 °C 14.9 °F /  -9.5 °C 30.17 in /  1021.6 hPa WNW 4.5 mph /  7.2 km/h 29.0 mph /  46.7 km/h 83 % 0.00 in /  0 mm
04:10 19.2 °F /  -7.1 °C 14.6 °F /  -9.7 °C 30.17 in /  1021.6 hPa West 5.9 mph /  9.5 km/h 29.0 mph /  46.7 km/h 82 % 0.00 in /  0 mm
04:16 19.2 °F /  -7.1 °C 14.6 °F /  -9.7 °C 30.17 in /  1021.6 hPa WNW 8.6 mph /  13.8 km/h 29.0 mph /  46.7 km/h 82 % 0.00 in /  0 mm
04:21 19.1 °F /  -7.2 °C 14.5 °F /  -9.7 °C 30.17 in /  1021.6 hPa West 4.9 mph /  7.9 km/h 29.0 mph /  46.7 km/h 82 % 0.00 in /  0 mm
04:26 19.2 °F /  -7.1 °C 14.6 °F /  -9.7 °C 30.17 in /  1021.6 hPa WNW 8.9 mph /  14.3 km/h 29.0 mph /  46.7 km/h 82 % 0.00 in /  0 mm
04:31 19.2 °F /  -7.1 °C 14.3 °F /  -9.8 °C 30.17 in /  1021.6 hPa NW 5.9 mph /  9.5 km/h 29.0 mph /  46.7 km/h 81 % 0.00 in /  0 mm
04:36 19.1 °F /  -7.2 °C 14.2 °F /  -9.9 °C 30.17 in /  1021.6 hPa NW 5.2 mph /  8.4 km/h 29.0 mph /  46.7 km/h 81 % 0.00 in /  0 mm
04:41 19.0 °F /  -7.2 °C 13.8 °F /  -10.1 °C 30.18 in /  1021.9 hPa WNW 5.5 mph /  8.9 km/h 29.0 mph /  46.7 km/h 80 % 0.00 in /  0 mm
04:46 19.0 °F /  -7.2 °C 14.1 °F /  -9.9 °C 30.17 in /  1021.6 hPa NW 9.8 mph /  15.8 km/h 29.0 mph /  46.7 km/h 81 % 0.00 in /  0 mm
04:51 19.0 °F /  -7.2 °C 13.8 °F /  -10.1 °C 30.17 in /  1021.6 hPa West 5.5 mph /  8.9 km/h 29.0 mph /  46.7 km/h 80 % 0.00 in /  0 mm
04:56 18.9 °F /  -7.3 °C 13.7 °F /  -10.2 °C 30.18 in /  1021.9 hPa NW 8.7 mph /  14 km/h 29.0 mph /  46.7 km/h 80 % 0.00 in /  0 mm
05:01 18.9 °F /  -7.3 °C 13.7 °F /  -10.2 °C 30.18 in /  1021.9 hPa WNW 8.6 mph /  13.8 km/h 29.0 mph /  46.7 km/h 80 % 0.00 in /  0 mm
05:06 18.9 °F /  -7.3 °C 13.7 °F /  -10.2 °C 30.18 in /  1021.9 hPa NW 3.0 mph /  4.8 km/h 29.0 mph /  46.7 km/h 80 % 0.00 in /  0 mm
05:11 18.8 °F /  -7.3 °C 13.7 °F /  -10.2 °C 30.19 in /  1022.2 hPa WNW 8.0 mph /  12.9 km/h 29.0 mph /  46.7 km/h 80 % 0.00 in /  0 mm
05:16 18.8 °F /  -7.3 °C 13.4 °F /  -10.3 °C 30.18 in /  1021.9 hPa West 6.1 mph /  9.8 km/h 29.0 mph /  46.7 km/h 79 % 0.00 in /  0 mm
05:21 18.8 °F /  -7.3 °C 13.4 °F /  -10.3 °C 30.19 in /  1022.2 hPa WNW 9.1 mph /  14.6 km/h 29.0 mph /  46.7 km/h 79 % 0.00 in /  0 mm
05:26 18.7 °F /  -7.4 °C 13.3 °F /  -10.4 °C 30.19 in /  1022.2 hPa WNW 5.9 mph /  9.5 km/h 29.0 mph /  46.7 km/h 79 % 0.00 in /  0 mm
05:32 18.7 °F /  -7.4 °C 13.3 °F /  -10.4 °C 30.19 in /  1022.2 hPa NW 7.6 mph /  12.2 km/h 29.0 mph /  46.7 km/h 79 % 0.00 in /  0 mm
05:37 18.6 °F /  -7.4 °C 12.9 °F /  -10.6 °C 30.19 in /  1022.2 hPa WNW 5.4 mph /  8.7 km/h 29.0 mph /  46.7 km/h 78 % 0.00 in /  0 mm
05:42 18.6 °F /  -7.4 °C 12.9 °F /  -10.6 °C 30.19 in /  1022.2 hPa NNW 6.4 mph /  10.3 km/h 29.0 mph /  46.7 km/h 78 % 0.00 in /  0 mm
05:47 18.6 °F /  -7.4 °C 13.2 °F /  -10.4 °C 30.19 in /  1022.2 hPa WNW 10.5 mph /  16.9 km/h 29.0 mph /  46.7 km/h 79 % 0.00 in /  0 mm
05:52 18.6 °F /  -7.4 °C 13.2 °F /  -10.4 °C 30.19 in /  1022.2 hPa NW 5.8 mph /  9.3 km/h 29.0 mph /  46.7 km/h 79 % 0.00 in /  0 mm
05:57 18.6 °F /  -7.4 °C 12.9 °F /  -10.6 °C 30.19 in /  1022.2 hPa NW 11.2 mph /  18 km/h 29.0 mph /  46.7 km/h 78 % 0.00 in /  0 mm
06:02 18.5 °F /  -7.5 °C 12.8 °F /  -10.7 °C 30.19 in /  1022.2 hPa WNW 11.5 mph /  18.5 km/h 29.0 mph /  46.7 km/h 78 % 0.00 in /  0 mm
06:07 18.6 °F /  -7.4 °C 12.9 °F /  -10.6 °C 30.19 in /  1022.2 hPa NNW 4.6 mph /  7.4 km/h 29.0 mph /  46.7 km/h 78 % 0.00 in /  0 mm
06:12 18.5 °F /  -7.5 °C 12.5 °F /  -10.8 °C 30.20 in /  1022.6 hPa WNW 4.5 mph /  7.2 km/h 29.0 mph /  46.7 km/h 77 % 0.00 in /  0 mm
06:17 18.5 °F /  -7.5 °C 12.5 °F /  -10.8 °C 30.20 in /  1022.6 hPa NW 9.5 mph /  15.3 km/h 29.0 mph /  46.7 km/h 77 % 0.00 in /  0 mm
06:22 18.5 °F /  -7.5 °C 12.5 °F /  -10.8 °C 30.20 in /  1022.6 hPa NW 5.3 mph /  8.5 km/h 29.0 mph /  46.7 km/h 77 % 0.00 in /  0 mm
06:27 18.4 °F /  -7.6 °C 12.1 °F /  -11.1 °C 30.20 in /  1022.6 hPa WNW 2.2 mph /  3.5 km/h 29.0 mph /  46.7 km/h 76 % 0.00 in /  0 mm
06:32 18.3 °F /  -7.6 °C 12.0 °F /  -11.1 °C 30.21 in /  1022.9 hPa NW 9.1 mph /  14.6 km/h 29.0 mph /  46.7 km/h 76 % 0.00 in /  0 mm
06:37 18.2 °F /  -7.7 °C 11.6 °F /  -11.3 °C 30.21 in /  1022.9 hPa WNW 7.7 mph /  12.4 km/h 29.0 mph /  46.7 km/h 75 % 0.00 in /  0 mm
06:42 18.1 °F /  -7.7 °C 11.2 °F /  -11.6 °C 30.21 in /  1022.9 hPa WSW 6.3 mph /  10.1 km/h 29.0 mph /  46.7 km/h 74 % 0.00 in /  0 mm
06:48 18.0 °F /  -7.8 °C 11.1 °F /  -11.6 °C 30.21 in /  1022.9 hPa WSW 6.4 mph /  10.3 km/h 29.0 mph /  46.7 km/h 74 % 0.00 in /  0 mm
06:53 18.0 °F /  -7.8 °C 11.1 °F /  -11.6 °C 30.22 in /  1023.2 hPa WSW 8.2 mph /  13.2 km/h 29.0 mph /  46.7 km/h 74 % 0.00 in /  0 mm
06:58 17.9 °F /  -7.8 °C 10.7 °F /  -11.8 °C 30.21 in /  1022.9 hPa WNW 7.0 mph /  11.3 km/h 29.0 mph /  46.7 km/h 73 % 0.00 in /  0 mm
07:03 17.9 °F /  -7.8 °C 10.4 °F /  -12 °C 30.21 in /  1022.9 hPa WNW 6.9 mph /  11.1 km/h 29.0 mph /  46.7 km/h 72 % 0.00 in /  0 mm
07:08 17.9 °F /  -7.8 °C 10.7 °F /  -11.8 °C 30.21 in /  1022.9 hPa West 5.0 mph /  8 km/h 29.0 mph /  46.7 km/h 73 % 0.00 in /  0 mm
07:13 17.9 °F /  -7.8 °C 10.4 °F /  -12 °C 30.21 in /  1022.9 hPa SW 9.7 mph /  15.6 km/h 29.0 mph /  46.7 km/h 72 % 0.00 in /  0 mm
07:18 18.0 °F /  -7.8 °C 10.5 °F /  -11.9 °C 30.21 in /  1022.9 hPa NNW 7.3 mph /  11.7 km/h 29.0 mph /  46.7 km/h 72 % 0.00 in /  0 mm
07:23 18.0 °F /  -7.8 °C 10.8 °F /  -11.8 °C 30.21 in /  1022.9 hPa WSW 11.0 mph /  17.7 km/h 29.0 mph /  46.7 km/h 73 % 0.00 in /  0 mm
07:28 18.0 °F /  -7.8 °C 10.5 °F /  -11.9 °C 30.22 in /  1023.2 hPa NNW 11.3 mph /  18.2 km/h 29.0 mph /  46.7 km/h 72 % 0.00 in /  0 mm
07:33 18.0 °F /  -7.8 °C 10.8 °F /  -11.8 °C 30.22 in /  1023.2 hPa NW 6.4 mph /  10.3 km/h 29.0 mph /  46.7 km/h 73 % 0.00 in /  0 mm
07:38 18.0 °F /  -7.8 °C 11.1 °F /  -11.6 °C 30.22 in /  1023.2 hPa SSW 6.3 mph /  10.1 km/h 29.0 mph /  46.7 km/h 74 % 0.00 in /  0 mm
07:43 18.1 °F /  -7.7 °C 10.6 °F /  -11.9 °C 30.22 in /  1023.2 hPa SW 9.0 mph /  14.5 km/h 29.0 mph /  46.7 km/h 72 % 0.00 in /  0 mm
07:49 18.1 °F /  -7.7 °C 10.6 °F /  -11.9 °C 30.22 in /  1023.2 hPa WSW 9.9 mph /  15.9 km/h 29.0 mph /  46.7 km/h 72 % 0.00 in /  0 mm
07:54 18.2 °F /  -7.7 °C 10.4 °F /  -12 °C 30.22 in /  1023.2 hPa West 8.4 mph /  13.5 km/h 29.0 mph /  46.7 km/h 71 % 0.00 in /  0 mm
07:59 18.2 °F /  -7.7 °C 10.7 °F /  -11.8 °C 30.23 in /  1023.6 hPa WNW 7.5 mph /  12.1 km/h 29.0 mph /  46.7 km/h 72 % 0.00 in /  0 mm
08:04 18.3 °F /  -7.6 °C 10.8 °F /  -11.8 °C 30.23 in /  1023.6 hPa NW 9.2 mph /  14.8 km/h 29.0 mph /  46.7 km/h 72 % 0.00 in /  0 mm
08:14 18.4 °F /  -7.6 °C 10.6 °F /  -11.9 °C 30.23 in /  1023.6 hPa WSW 8.3 mph /  13.4 km/h 29.0 mph /  46.7 km/h 71 % 0.00 in /  0 mm
08:25 18.7 °F /  -7.4 °C 11.2 °F /  -11.6 °C 30.24 in /  1023.9 hPa SW 8.3 mph /  13.4 km/h 29.0 mph /  46.7 km/h 72 % 0.00 in /  0 mm
08:39 18.8 °F /  -7.3 °C 10.9 °F /  -11.7 °C 30.24 in /  1023.9 hPa NW 8.7 mph /  14 km/h 29.0 mph /  46.7 km/h 71 % 0.00 in /  0 mm
09:15 19.4 °F /  -7 °C 11.2 °F /  -11.6 °C 30.24 in /  1023.9 hPa WNW 5.1 mph /  8.2 km/h 29.0 mph /  46.7 km/h 70 % 0.00 in /  0 mm
09:24 19.4 °F /  -7 °C 11.2 °F /  -11.6 °C 30.24 in /  1023.9 hPa WNW 7.0 mph /  11.3 km/h 29.0 mph /  46.7 km/h 70 % 0.00 in /  0 mm
09:31 19.6 °F /  -6.9 °C 11.4 °F /  -11.4 °C 30.24 in /  1023.9 hPa West 9.2 mph /  14.8 km/h 29.0 mph /  46.7 km/h 70 % 0.00 in /  0 mm
09:37 19.7 °F /  -6.8 °C 11.2 °F /  -11.6 °C 30.25 in /  1024.3 hPa West 6.0 mph /  9.7 km/h 29.0 mph /  46.7 km/h 69 % 0.00 in /  0 mm
09:42 19.8 °F /  -6.8 °C 11.3 °F /  -11.5 °C 30.24 in /  1023.9 hPa WNW 4.2 mph /  6.8 km/h 29.0 mph /  46.7 km/h 69 % 0.00 in /  0 mm
09:47 20.0 °F /  -6.7 °C 11.5 °F /  -11.4 °C 30.25 in /  1024.3 hPa WNW 4.2 mph /  6.8 km/h 29.0 mph /  46.7 km/h 69 % 0.00 in /  0 mm
09:52 20.1 °F /  -6.6 °C 11.6 °F /  -11.3 °C 30.25 in /  1024.3 hPa WNW 6.6 mph /  10.6 km/h 29.0 mph /  46.7 km/h 69 % 0.00 in /  0 mm
09:57 20.0 °F /  -6.7 °C 11.1 °F /  -11.6 °C 30.25 in /  1024.3 hPa West 7.9 mph /  12.7 km/h 29.0 mph /  46.7 km/h 68 % 0.00 in /  0 mm
10:02 20.0 °F /  -6.7 °C 11.8 °F /  -11.2 °C 30.25 in /  1024.3 hPa NW 4.0 mph /  6.4 km/h 29.0 mph /  46.7 km/h 70 % 0.00 in /  0 mm
10:07 20.0 °F /  -6.7 °C 11.5 °F /  -11.4 °C 30.25 in /  1024.3 hPa NW 8.3 mph /  13.4 km/h 29.0 mph /  46.7 km/h 69 % 0.00 in /  0 mm
10:12 20.0 °F /  -6.7 °C 11.1 °F /  -11.6 °C 30.25 in /  1024.3 hPa WNW 4.1 mph /  6.6 km/h 29.0 mph /  46.7 km/h 68 % 0.00 in /  0 mm
10:17 20.0 °F /  -6.7 °C 10.8 °F /  -11.8 °C 30.24 in /  1023.9 hPa NW 6.5 mph /  10.5 km/h 29.0 mph /  46.7 km/h 67 % 0.00 in /  0 mm
10:23 20.2 °F /  -6.6 °C 11.0 °F /  -11.7 °C 30.24 in /  1023.9 hPa WNW 8.3 mph /  13.4 km/h 29.0 mph /  46.7 km/h 67 % 0.00 in /  0 mm
10:28 20.3 °F /  -6.5 °C 10.7 °F /  -11.8 °C 30.24 in /  1023.9 hPa WSW 7.9 mph /  12.7 km/h 29.0 mph /  46.7 km/h 66 % 0.00 in /  0 mm
10:33 20.5 °F /  -6.4 °C 10.9 °F /  -11.7 °C 30.24 in /  1023.9 hPa West 8.3 mph /  13.4 km/h 29.0 mph /  46.7 km/h 66 % 0.00 in /  0 mm
10:38 20.7 °F /  -6.3 °C 11.1 °F /  -11.6 °C 30.24 in /  1023.9 hPa WNW 4.4 mph /  7.1 km/h 29.0 mph /  46.7 km/h 66 % 0.00 in /  0 mm
10:43 20.9 °F /  -6.2 °C 11.7 °F /  -11.3 °C 30.23 in /  1023.6 hPa WNW 7.4 mph /  11.9 km/h 29.0 mph /  46.7 km/h 67 % 0.00 in /  0 mm
10:48 21.0 °F /  -6.1 °C 11.1 °F /  -11.6 °C 30.23 in /  1023.6 hPa West 9.8 mph /  15.8 km/h 29.0 mph /  46.7 km/h 65 % 0.00 in /  0 mm
10:53 21.2 °F /  -6 °C 11.3 °F /  -11.5 °C 30.24 in /  1023.9 hPa NW 5.4 mph /  8.7 km/h 29.0 mph /  46.7 km/h 65 % 0.00 in /  0 mm
10:58 21.3 °F /  -5.9 °C 11.7 °F /  -11.3 °C 30.24 in /  1023.9 hPa NW 6.9 mph /  11.1 km/h 29.0 mph /  46.7 km/h 66 % 0.00 in /  0 mm
11:03 21.6 °F /  -5.8 °C 11.6 °F /  -11.3 °C 30.24 in /  1023.9 hPa North 5.0 mph /  8 km/h 29.0 mph /  46.7 km/h 65 % 0.00 in /  0 mm
11:08 21.6 °F /  -5.8 °C 11.3 °F /  -11.5 °C 30.24 in /  1023.9 hPa NW 11.5 mph /  18.5 km/h 29.0 mph /  46.7 km/h 64 % 0.00 in /  0 mm
11:13 21.5 °F /  -5.8 °C 11.5 °F /  -11.4 °C 30.23 in /  1023.6 hPa NW 6.9 mph /  11.1 km/h 29.0 mph /  46.7 km/h 65 % 0.00 in /  0 mm
11:18 21.5 °F /  -5.8 °C 11.9 °F /  -11.2 °C 30.23 in /  1023.6 hPa WNW 8.7 mph /  14 km/h 29.0 mph /  46.7 km/h 66 % 0.00 in /  0 mm
11:23 21.5 °F /  -5.8 °C 11.2 °F /  -11.6 °C 30.23 in /  1023.6 hPa NNW 6.9 mph /  11.1 km/h 29.0 mph /  46.7 km/h 64 % 0.00 in /  0 mm
11:29 21.5 °F /  -5.8 °C 11.9 °F /  -11.2 °C 30.23 in /  1023.6 hPa WNW 4.2 mph /  6.8 km/h 29.0 mph /  46.7 km/h 66 % 0.00 in /  0 mm
11:33 21.5 °F /  -5.8 °C 11.9 °F /  -11.2 °C 30.24 in /  1023.9 hPa NW 4.1 mph /  6.6 km/h 29.0 mph /  46.7 km/h 66 % 0.00 in /  0 mm
11:39 21.5 °F /  -5.8 °C 11.9 °F /  -11.2 °C 30.24 in /  1023.9 hPa NW 7.8 mph /  12.6 km/h 29.0 mph /  46.7 km/h 66 % 0.00 in /  0 mm
11:44 21.7 °F /  -5.7 °C 11.4 °F /  -11.4 °C 30.23 in /  1023.6 hPa WNW 5.5 mph /  8.9 km/h 29.0 mph /  46.7 km/h 64 % 0.00 in /  0 mm
11:49 21.8 °F /  -5.7 °C 11.5 °F /  -11.4 °C 30.23 in /  1023.6 hPa NNW 6.7 mph /  10.8 km/h 29.0 mph /  46.7 km/h 64 % 0.00 in /  0 mm
11:54 21.7 °F /  -5.7 °C 11.4 °F /  -11.4 °C 30.22 in /  1023.2 hPa SW 6.8 mph /  10.9 km/h 29.0 mph /  46.7 km/h 64 % 0.00 in /  0 mm
11:59 21.6 °F /  -5.8 °C 11.3 °F /  -11.5 °C 30.22 in /  1023.2 hPa WNW 4.9 mph /  7.9 km/h 29.0 mph /  46.7 km/h 64 % 0.00 in /  0 mm
12:04 21.7 °F /  -5.7 °C 11.4 °F /  -11.4 °C 30.22 in /  1023.2 hPa WNW 6.6 mph /  10.6 km/h 29.0 mph /  46.7 km/h 64 % 0.00 in /  0 mm
12:09 21.7 °F /  -5.7 °C 11.0 °F /  -11.7 °C 30.22 in /  1023.2 hPa WSW 8.8 mph /  14.2 km/h 29.0 mph /  46.7 km/h 63 % 0.00 in /  0 mm
12:14 21.8 °F /  -5.7 °C 11.5 °F /  -11.4 °C 30.23 in /  1023.6 hPa North 9.4 mph /  15.1 km/h 29.0 mph /  46.7 km/h 64 % 0.00 in /  0 mm
12:19 21.8 °F /  -5.7 °C 11.1 °F /  -11.6 °C 30.23 in /  1023.6 hPa West 6.2 mph /  10 km/h 29.0 mph /  46.7 km/h 63 % 0.00 in /  0 mm
12:24 21.8 °F /  -5.7 °C 11.1 °F /  -11.6 °C 30.23 in /  1023.6 hPa WNW 8.6 mph /  13.8 km/h 29.0 mph /  46.7 km/h 63 % 0.00 in /  0 mm
12:29 21.6 °F /  -5.8 °C 10.6 °F /  -11.9 °C 30.22 in /  1023.2 hPa NW 10.1 mph /  16.3 km/h 29.0 mph /  46.7 km/h 62 % 0.00 in /  0 mm
12:35 21.6 °F /  -5.8 °C 10.6 °F /  -11.9 °C 30.22 in /  1023.2 hPa WNW 9.2 mph /  14.8 km/h 29.0 mph /  46.7 km/h 62 % 0.00 in /  0 mm
12:40 21.6 °F /  -5.8 °C 10.6 °F /  -11.9 °C 30.22 in /  1023.2 hPa WNW 6.2 mph /  10 km/h 29.0 mph /  46.7 km/h 62 % 0.00 in /  0 mm
12:45 21.7 °F /  -5.7 °C 10.7 °F /  -11.8 °C 30.22 in /  1023.2 hPa NW 7.6 mph /  12.2 km/h 29.0 mph /  46.7 km/h 62 % 0.00 in /  0 mm
12:50 21.9 °F /  -5.6 °C 10.9 °F /  -11.7 °C 30.22 in /  1023.2 hPa NW 6.6 mph /  10.6 km/h 29.0 mph /  46.7 km/h 62 % 0.00 in /  0 mm
13:00 21.9 °F /  -5.6 °C 10.9 °F /  -11.7 °C 30.22 in /  1023.2 hPa NW 5.4 mph /  8.7 km/h 29.0 mph /  46.7 km/h 62 % 0.00 in /  0 mm
13:10 21.6 °F /  -5.8 °C 10.2 °F /  -12.1 °C 30.23 in /  1023.6 hPa NW 8.0 mph /  12.9 km/h 29.0 mph /  46.7 km/h 61 % 0.00 in /  0 mm
13:15 21.7 °F /  -5.7 °C 9.9 °F /  -12.3 °C 30.23 in /  1023.6 hPa NNW 9.9 mph /  15.9 km/h 29.0 mph /  46.7 km/h 60 % 0.00 in /  0 mm
13:20 21.7 °F /  -5.7 °C 9.6 °F /  -12.4 °C 30.23 in /  1023.6 hPa West 6.9 mph /  11.1 km/h 29.0 mph /  46.7 km/h 59 % 0.00 in /  0 mm
13:30 22.3 °F /  -5.4 °C 10.5 °F /  -11.9 °C 30.23 in /  1023.6 hPa WNW 3.4 mph /  5.5 km/h 29.0 mph /  46.7 km/h 60 % 0.00 in /  0 mm
13:36 22.7 °F /  -5.2 °C 10.9 °F /  -11.7 °C 30.23 in /  1023.6 hPa WNW 3.9 mph /  6.3 km/h 29.0 mph /  46.7 km/h 60 % 0.00 in /  0 mm
13:41 22.9 °F /  -5.1 °C 11.1 °F /  -11.6 °C 30.23 in /  1023.6 hPa West 8.8 mph /  14.2 km/h 29.0 mph /  46.7 km/h 60 % 0.00 in /  0 mm
13:44 23.0 °F /  -5 °C 11.2 °F /  -11.6 °C 30.24 in /  1023.9 hPa WSW 7.4 mph /  11.9 km/h 29.0 mph /  46.7 km/h 60 % 0.00 in /  0 mm
13:49 23.2 °F /  -4.9 °C 11.4 °F /  -11.4 °C 30.24 in /  1023.9 hPa NW 11.2 mph /  18 km/h 29.0 mph /  46.7 km/h 60 % 0.00 in /  0 mm
13:54 23.1 °F /  -4.9 °C 10.5 °F /  -11.9 °C 30.24 in /  1023.9 hPa West 7.0 mph /  11.3 km/h 29.0 mph /  46.7 km/h 58 % 0.00 in /  0 mm
14:04 23.0 °F /  -5 °C 11.5 °F /  -11.4 °C 30.24 in /  1023.9 hPa WNW 6.5 mph /  10.5 km/h 29.0 mph /  46.7 km/h 61 % 0.00 in /  0 mm
14:09 23.2 °F /  -4.9 °C 11.4 °F /  -11.4 °C 30.24 in /  1023.9 hPa West 8.1 mph /  13 km/h 29.0 mph /  46.7 km/h 60 % 0.00 in /  0 mm
14:14 23.4 °F /  -4.8 °C 11.5 °F /  -11.4 °C 30.24 in /  1023.9 hPa WNW 5.8 mph /  9.3 km/h 29.0 mph /  46.7 km/h 60 % 0.00 in /  0 mm
14:19 23.5 °F /  -4.7 °C 12.0 °F /  -11.1 °C 30.24 in /  1023.9 hPa WNW 5.3 mph /  8.5 km/h 29.0 mph /  46.7 km/h 61 % 0.00 in /  0 mm
14:29 23.5 °F /  -4.7 °C 12.0 °F /  -11.1 °C 30.25 in /  1024.3 hPa WNW 10.7 mph /  17.2 km/h 29.0 mph /  46.7 km/h 61 % 0.00 in /  0 mm
14:35 23.3 °F /  -4.8 °C 11.8 °F /  -11.2 °C 30.25 in /  1024.3 hPa West 8.2 mph /  13.2 km/h 29.0 mph /  46.7 km/h 61 % 0.00 in /  0 mm
14:40 23.2 °F /  -4.9 °C 11.7 °F /  -11.3 °C 30.26 in /  1024.6 hPa NW 9.0 mph /  14.5 km/h 29.0 mph /  46.7 km/h 61 % 0.00 in /  0 mm
14:45 23.1 °F /  -4.9 °C 12.0 °F /  -11.1 °C 30.26 in /  1024.6 hPa WNW 6.9 mph /  11.1 km/h 29.0 mph /  46.7 km/h 62 % 0.00 in /  0 mm
14:50 23.1 °F /  -4.9 °C 12.0 °F /  -11.1 °C 30.26 in /  1024.6 hPa NW 4.2 mph /  6.8 km/h 29.0 mph /  46.7 km/h 62 % 0.00 in /  0 mm
14:55 23.2 °F /  -4.9 °C 12.5 °F /  -10.8 °C 30.27 in /  1024.9 hPa WNW 7.9 mph /  12.7 km/h 29.0 mph /  46.7 km/h 63 % 0.00 in /  0 mm
15:00 23.1 °F /  -4.9 °C 12.0 °F /  -11.1 °C 30.27 in /  1024.9 hPa WSW 8.0 mph /  12.9 km/h 29.0 mph /  46.7 km/h 62 % 0.00 in /  0 mm
15:05 23.0 °F /  -5 °C 11.5 °F /  -11.4 °C 30.27 in /  1024.9 hPa West 6.8 mph /  10.9 km/h 29.0 mph /  46.7 km/h 61 % 0.00 in /  0 mm
15:15 23.0 °F /  -5 °C 11.9 °F /  -11.2 °C 30.28 in /  1025.3 hPa WNW 8.5 mph /  13.7 km/h 29.0 mph /  46.7 km/h 62 % 0.00 in /  0 mm
15:20 23.1 °F /  -4.9 °C 12.0 °F /  -11.1 °C 30.28 in /  1025.3 hPa NNW 6.2 mph /  10 km/h 29.0 mph /  46.7 km/h 62 % 0.00 in /  0 mm
15:25 23.1 °F /  -4.9 °C 11.3 °F /  -11.5 °C 30.28 in /  1025.3 hPa NW 5.9 mph /  9.5 km/h 29.0 mph /  46.7 km/h 60 % 0.00 in /  0 mm
15:31 23.3 °F /  -4.8 °C 11.4 °F /  -11.4 °C 30.28 in /  1025.3 hPa WNW 5.4 mph /  8.7 km/h 29.0 mph /  46.7 km/h 60 % 0.00 in /  0 mm
15:36 23.3 °F /  -4.8 °C 11.4 °F /  -11.4 °C 30.28 in /  1025.3 hPa NW 7.2 mph /  11.6 km/h 29.0 mph /  46.7 km/h 60 % 0.00 in /  0 mm
15:41 23.4 °F /  -4.8 °C 11.2 °F /  -11.6 °C 30.28 in /  1025.3 hPa NW 5.8 mph /  9.3 km/h 29.0 mph /  46.7 km/h 59 % 0.00 in /  0 mm
15:46 23.4 °F /  -4.8 °C 11.2 °F /  -11.6 °C 30.29 in /  1025.6 hPa WNW 4.4 mph /  7.1 km/h 29.0 mph /  46.7 km/h 59 % 0.00 in /  0 mm
15:51 23.5 °F /  -4.7 °C 11.3 °F /  -11.5 °C 30.29 in /  1025.6 hPa NNW 7.8 mph /  12.6 km/h 29.0 mph /  46.7 km/h 59 % 0.00 in /  0 mm
15:56 23.5 °F /  -4.7 °C 11.3 °F /  -11.5 °C 30.29 in /  1025.6 hPa WNW 4.0 mph /  6.4 km/h 29.0 mph /  46.7 km/h 59 % 0.00 in /  0 mm
16:01 23.5 °F /  -4.7 °C 11.3 °F /  -11.5 °C 30.29 in /  1025.6 hPa NNW 9.0 mph /  14.5 km/h 29.0 mph /  46.7 km/h 59 % 0.00 in /  0 mm
16:06 23.4 °F /  -4.8 °C 11.2 °F /  -11.6 °C 30.30 in /  1026 hPa NW 5.7 mph /  9.2 km/h 29.0 mph /  46.7 km/h 59 % 0.00 in /  0 mm
16:11 23.4 °F /  -4.8 °C 11.5 °F /  -11.4 °C 30.30 in /  1026 hPa West 5.1 mph /  8.2 km/h 29.0 mph /  46.7 km/h 60 % 0.00 in /  0 mm
16:16 23.4 °F /  -4.8 °C 11.2 °F /  -11.6 °C 30.30 in /  1026 hPa NW 7.7 mph /  12.4 km/h 29.0 mph /  46.7 km/h 59 % 0.00 in /  0 mm
16:22 23.4 °F /  -4.8 °C 10.8 °F /  -11.8 °C 30.30 in /  1026 hPa NNW 5.1 mph /  8.2 km/h 29.0 mph /  46.7 km/h 58 % 0.00 in /  0 mm
16:27 23.5 °F /  -4.7 °C 10.9 °F /  -11.7 °C 30.31 in /  1026.3 hPa West 7.8 mph /  12.6 km/h 29.0 mph /  46.7 km/h 58 % 0.00 in /  0 mm
16:32 23.5 °F /  -4.7 °C 11.3 °F /  -11.5 °C 30.31 in /  1026.3 hPa NW 5.3 mph /  8.5 km/h 29.0 mph /  46.7 km/h 59 % 0.00 in /  0 mm
16:37 23.5 °F /  -4.7 °C 11.3 °F /  -11.5 °C 30.31 in /  1026.3 hPa NNW 5.4 mph /  8.7 km/h 29.0 mph /  46.7 km/h 59 % 0.00 in /  0 mm
16:42 23.6 °F /  -4.7 °C 11.7 °F /  -11.3 °C 30.32 in /  1026.6 hPa WSW 7.2 mph /  11.6 km/h 29.0 mph /  46.7 km/h 60 % 0.00 in /  0 mm
16:47 23.6 °F /  -4.7 °C 11.7 °F /  -11.3 °C 30.32 in /  1026.6 hPa West 4.3 mph /  6.9 km/h 29.0 mph /  46.7 km/h 60 % 0.00 in /  0 mm
16:52 23.5 °F /  -4.7 °C 10.9 °F /  -11.7 °C 30.32 in /  1026.6 hPa WNW 8.3 mph /  13.4 km/h 29.0 mph /  46.7 km/h 58 % 0.00 in /  0 mm
16:57 23.5 °F /  -4.7 °C 10.1 °F /  -12.2 °C 30.32 in /  1026.6 hPa West 3.8 mph /  6.1 km/h 29.0 mph /  46.7 km/h 56 % 0.00 in /  0 mm
17:02 23.6 °F /  -4.7 °C 8.9 °F /  -12.8 °C 30.32 in /  1026.6 hPa NW 7.7 mph /  12.4 km/h 29.0 mph /  46.7 km/h 53 % 0.00 in /  0 mm
17:07 23.6 °F /  -4.7 °C 8.9 °F /  -12.8 °C 30.32 in /  1026.6 hPa WSW 10.3 mph /  16.6 km/h 29.0 mph /  46.7 km/h 53 % 0.00 in /  0 mm
17:12 23.6 °F /  -4.7 °C 8.9 °F /  -12.8 °C 30.32 in /  1026.6 hPa WNW 8.1 mph /  13 km/h 29.0 mph /  46.7 km/h 53 % 0.00 in /  0 mm
17:17 23.6 °F /  -4.7 °C 9.8 °F /  -12.3 °C 30.33 in /  1027 hPa NW 8.1 mph /  13 km/h 29.0 mph /  46.7 km/h 55 % 0.00 in /  0 mm
17:22 23.8 °F /  -4.6 °C 10.4 °F /  -12 °C 30.33 in /  1027 hPa NW 9.3 mph /  15 km/h 29.0 mph /  46.7 km/h 56 % 0.00 in /  0 mm
17:27 23.8 °F /  -4.6 °C 9.6 °F /  -12.4 °C 30.33 in /  1027 hPa NW 8.8 mph /  14.2 km/h 29.0 mph /  46.7 km/h 54 % 0.00 in /  0 mm
17:32 23.8 °F /  -4.6 °C 10.4 °F /  -12 °C 30.34 in /  1027.3 hPa NW 7.4 mph /  11.9 km/h 29.0 mph /  46.7 km/h 56 % 0.00 in /  0 mm
17:37 23.9 °F /  -4.5 °C 10.5 °F /  -11.9 °C 30.34 in /  1027.3 hPa NNW 8.6 mph /  13.8 km/h 29.0 mph /  46.7 km/h 56 % 0.00 in /  0 mm
17:43 23.9 °F /  -4.5 °C 10.1 °F /  -12.2 °C 30.35 in /  1027.7 hPa NNW 8.1 mph /  13 km/h 29.0 mph /  46.7 km/h 55 % 0.00 in /  0 mm
17:48 23.8 °F /  -4.6 °C 9.6 °F /  -12.4 °C 30.35 in /  1027.7 hPa West 7.5 mph /  12.1 km/h 29.0 mph /  46.7 km/h 54 % 0.00 in /  0 mm
17:53 23.7 °F /  -4.6 °C 9.9 °F /  -12.3 °C 30.35 in /  1027.7 hPa NW 9.0 mph /  14.5 km/h 29.0 mph /  46.7 km/h 55 % 0.00 in /  0 mm
17:58 23.6 °F /  -4.7 °C 9.8 °F /  -12.3 °C 30.36 in /  1028 hPa WNW 8.0 mph /  12.9 km/h 29.0 mph /  46.7 km/h 55 % 0.00 in /  0 mm
18:03 23.5 °F /  -4.7 °C 9.3 °F /  -12.6 °C 30.36 in /  1028 hPa WNW 12.2 mph /  19.6 km/h 29.0 mph /  46.7 km/h 54 % 0.00 in /  0 mm
18:08 23.4 °F /  -4.8 °C 9.6 °F /  -12.4 °C 30.37 in /  1028.3 hPa NW 8.6 mph /  13.8 km/h 29.0 mph /  46.7 km/h 55 % 0.00 in /  0 mm
18:13 23.4 °F /  -4.8 °C 10.4 °F /  -12 °C 30.37 in /  1028.3 hPa NW 8.9 mph /  14.3 km/h 29.0 mph /  46.7 km/h 57 % 0.00 in /  0 mm
18:23 23.2 °F /  -4.9 °C 9.4 °F /  -12.6 °C 30.39 in /  1029 hPa NW 10.9 mph /  17.5 km/h 29.0 mph /  46.7 km/h 55 % 0.00 in /  0 mm
18:28 23.0 °F /  -5 °C 9.2 °F /  -12.7 °C 30.39 in /  1029 hPa WNW 8.2 mph /  13.2 km/h 29.0 mph /  46.7 km/h 55 % 0.00 in /  0 mm
18:33 22.9 °F /  -5.1 °C 9.5 °F /  -12.5 °C 30.39 in /  1029 hPa North 6.0 mph /  9.7 km/h 29.0 mph /  46.7 km/h 56 % 0.00 in /  0 mm
18:38 22.8 °F /  -5.1 °C 9.0 °F /  -12.8 °C 30.40 in /  1029.3 hPa NW 8.4 mph /  13.5 km/h 29.0 mph /  46.7 km/h 55 % 0.00 in /  0 mm
18:43 22.7 °F /  -5.2 °C 8.9 °F /  -12.8 °C 30.40 in /  1029.3 hPa NW 6.2 mph /  10 km/h 29.0 mph /  46.7 km/h 55 % 0.00 in /  0 mm
18:48 22.6 °F /  -5.2 °C 9.6 °F /  -12.4 °C 30.40 in /  1029.3 hPa WSW 5.0 mph /  8 km/h 29.0 mph /  46.7 km/h 57 % 0.00 in /  0 mm
18:53 22.6 °F /  -5.2 °C 9.2 °F /  -12.7 °C 30.41 in /  1029.7 hPa NNW 7.2 mph /  11.6 km/h 29.0 mph /  46.7 km/h 56 % 0.00 in /  0 mm
18:59 22.5 °F /  -5.3 °C 9.5 °F /  -12.5 °C 30.41 in /  1029.7 hPa WNW 5.7 mph /  9.2 km/h 29.0 mph /  46.7 km/h 57 % 0.00 in /  0 mm
19:04 22.6 °F /  -5.2 °C 9.6 °F /  -12.4 °C 30.41 in /  1029.7 hPa NW 6.1 mph /  9.8 km/h 29.0 mph /  46.7 km/h 57 % 0.00 in /  0 mm
19:09 22.5 °F /  -5.3 °C 9.5 °F /  -12.5 °C 30.42 in /  1030 hPa WNW 5.1 mph /  8.2 km/h 29.0 mph /  46.7 km/h 57 % 0.00 in /  0 mm
19:14 22.5 °F /  -5.3 °C 7.9 °F /  -13.4 °C 30.42 in /  1030 hPa NW 9.9 mph /  15.9 km/h 29.0 mph /  46.7 km/h 53 % 0.00 in /  0 mm
19:19 22.5 °F /  -5.3 °C 8.7 °F /  -12.9 °C 30.42 in /  1030 hPa WNW 8.7 mph /  14 km/h 29.0 mph /  46.7 km/h 55 % 0.00 in /  0 mm
19:24 22.5 °F /  -5.3 °C 8.3 °F /  -13.2 °C 30.42 in /  1030 hPa NW 11.9 mph /  19.2 km/h 29.0 mph /  46.7 km/h 54 % 0.00 in /  0 mm
19:29 22.5 °F /  -5.3 °C 7.5 °F /  -13.6 °C 30.43 in /  1030.4 hPa NW 11.7 mph /  18.8 km/h 29.0 mph /  46.7 km/h 52 % 0.00 in /  0 mm
19:34 22.5 °F /  -5.3 °C 7.9 °F /  -13.4 °C 30.43 in /  1030.4 hPa NW 9.0 mph /  14.5 km/h 18.0 mph /  29 km/h 53 % 0.00 in /  0 mm
19:39 22.4 °F /  -5.3 °C 7.4 °F /  -13.7 °C 30.43 in /  1030.4 hPa WNW 13.0 mph /  20.9 km/h 24.0 mph /  38.6 km/h 52 % 0.00 in /  0 mm
19:44 22.3 °F /  -5.4 °C 7.7 °F /  -13.5 °C 30.43 in /  1030.4 hPa WNW 9.0 mph /  14.5 km/h 21.0 mph /  33.8 km/h 53 % 0.00 in /  0 mm
19:49 22.2 °F /  -5.4 °C 7.6 °F /  -13.6 °C 30.43 in /  1030.4 hPa West 9.4 mph /  15.1 km/h 29.0 mph /  46.7 km/h 53 % 0.00 in /  0 mm
19:54 22.2 °F /  -5.4 °C 7.6 °F /  -13.6 °C 30.44 in /  1030.7 hPa WNW 10.0 mph /  16.1 km/h 23.0 mph /  37 km/h 53 % 0.00 in /  0 mm
19:59 22.1 °F /  -5.5 °C 7.1 °F /  -13.8 °C 30.44 in /  1030.7 hPa NW 6.4 mph /  10.3 km/h 29.0 mph /  46.7 km/h 52 % 0.00 in /  0 mm
20:04 22.0 °F /  -5.6 °C 7.5 °F /  -13.6 °C 30.45 in /  1031 hPa NNW 7.9 mph /  12.7 km/h 29.0 mph /  46.7 km/h 53 % 0.00 in /  0 mm
20:09 21.8 °F /  -5.7 °C 7.3 °F /  -13.7 °C 30.45 in /  1031 hPa WNW 6.6 mph /  10.6 km/h 29.0 mph /  46.7 km/h 53 % 0.00 in /  0 mm
20:19 21.6 °F /  -5.8 °C 7.9 °F /  -13.4 °C 30.45 in /  1031 hPa WNW 8.9 mph /  14.3 km/h 29.0 mph /  46.7 km/h 55 % 0.00 in /  0 mm
20:24 21.5 °F /  -5.8 °C 8.6 °F /  -13 °C 30.46 in /  1031.4 hPa NNW 7.6 mph /  12.2 km/h 29.0 mph /  46.7 km/h 57 % 0.00 in /  0 mm
20:29 21.5 °F /  -5.8 °C 7.8 °F /  -13.4 °C 30.46 in /  1031.4 hPa WNW 8.0 mph /  12.9 km/h 29.0 mph /  46.7 km/h 55 % 0.00 in /  0 mm
20:34 21.5 °F /  -5.8 °C 8.6 °F /  -13 °C 30.46 in /  1031.4 hPa NW 12.9 mph /  20.8 km/h 29.0 mph /  46.7 km/h 57 % 0.00 in /  0 mm
20:39 21.4 °F /  -5.9 °C 8.5 °F /  -13.1 °C 30.47 in /  1031.7 hPa WNW 7.3 mph /  11.7 km/h 29.0 mph /  46.7 km/h 57 % 0.00 in /  0 mm
20:45 21.3 °F /  -5.9 °C 8.8 °F /  -12.9 °C 30.47 in /  1031.7 hPa West 6.0 mph /  9.7 km/h 29.0 mph /  46.7 km/h 58 % 0.00 in /  0 mm
20:55 21.2 °F /  -6 °C 9.1 °F /  -12.7 °C 30.47 in /  1031.7 hPa NW 7.5 mph /  12.1 km/h 29.0 mph /  46.7 km/h 59 % 0.00 in /  0 mm
21:00 21.1 °F /  -6.1 °C 8.2 °F /  -13.2 °C 30.47 in /  1031.7 hPa NW 6.4 mph /  10.3 km/h 29.0 mph /  46.7 km/h 57 % 0.00 in /  0 mm
21:05 21.1 °F /  -6.1 °C 9.0 °F /  -12.8 °C 30.48 in /  1032.1 hPa WNW 6.2 mph /  10 km/h 29.0 mph /  46.7 km/h 59 % 0.00 in /  0 mm
21:10 21.0 °F /  -6.1 °C 8.5 °F /  -13.1 °C 30.48 in /  1032.1 hPa West 6.7 mph /  10.8 km/h 29.0 mph /  46.7 km/h 58 % 0.00 in /  0 mm
21:15 20.9 °F /  -6.2 °C 8.4 °F /  -13.1 °C 30.49 in /  1032.4 hPa WSW 6.1 mph /  9.8 km/h 29.0 mph /  46.7 km/h 58 % 0.00 in /  0 mm
21:20 20.9 °F /  -6.2 °C 9.2 °F /  -12.7 °C 30.49 in /  1032.4 hPa SW 9.4 mph /  15.1 km/h 29.0 mph /  46.7 km/h 60 % 0.00 in /  0 mm
21:25 20.8 °F /  -6.2 °C 9.1 °F /  -12.7 °C 30.49 in /  1032.4 hPa North 4.7 mph /  7.6 km/h 29.0 mph /  46.7 km/h 60 % 0.00 in /  0 mm
21:30 20.8 °F /  -6.2 °C 8.7 °F /  -12.9 °C 30.49 in /  1032.4 hPa NW 5.9 mph /  9.5 km/h 29.0 mph /  46.7 km/h 59 % 0.00 in /  0 mm
21:35 20.7 °F /  -6.3 °C 8.6 °F /  -13 °C 30.50 in /  1032.7 hPa NW 10.0 mph /  16.1 km/h 29.0 mph /  46.7 km/h 59 % 0.00 in /  0 mm
21:40 20.6 °F /  -6.3 °C 8.1 °F /  -13.3 °C 30.50 in /  1032.7 hPa NW 5.7 mph /  9.2 km/h 29.0 mph /  46.7 km/h 58 % 0.00 in /  0 mm
21:45 20.5 °F /  -6.4 °C 8.8 °F /  -12.9 °C 30.50 in /  1032.7 hPa WNW 3.8 mph /  6.1 km/h 29.0 mph /  46.7 km/h 60 % 0.00 in /  0 mm
21:50 20.5 °F /  -6.4 °C 8.4 °F /  -13.1 °C 30.50 in /  1032.7 hPa NW 10.1 mph /  16.3 km/h 29.0 mph /  46.7 km/h 59 % 0.00 in /  0 mm
21:55 20.4 °F /  -6.4 °C 9.1 °F /  -12.7 °C 30.51 in /  1033.1 hPa WNW 8.0 mph /  12.9 km/h 29.0 mph /  46.7 km/h 61 % 0.00 in /  0 mm
22:00 20.4 °F /  -6.4 °C 9.1 °F /  -12.7 °C 30.51 in /  1033.1 hPa North 6.5 mph /  10.5 km/h 29.0 mph /  46.7 km/h 61 % 0.00 in /  0 mm
22:05 20.3 °F /  -6.5 °C 8.6 °F /  -13 °C 30.51 in /  1033.1 hPa West 8.5 mph /  13.7 km/h 29.0 mph /  46.7 km/h 60 % 0.00 in /  0 mm
22:11 20.2 °F /  -6.6 °C 8.9 °F /  -12.8 °C 30.52 in /  1033.4 hPa NW 7.1 mph /  11.4 km/h 29.0 mph /  46.7 km/h 61 % 0.00 in /  0 mm
22:16 20.2 °F /  -6.6 °C 8.5 °F /  -13.1 °C 30.52 in /  1033.4 hPa NNW 7.3 mph /  11.7 km/h 29.0 mph /  46.7 km/h 60 % 0.00 in /  0 mm
22:21 20.1 °F /  -6.6 °C 8.8 °F /  -12.9 °C 30.52 in /  1033.4 hPa NW 6.6 mph /  10.6 km/h 29.0 mph /  46.7 km/h 61 % 0.00 in /  0 mm
22:26 20.1 °F /  -6.6 °C 8.8 °F /  -12.9 °C 30.52 in /  1033.4 hPa NW 6.4 mph /  10.3 km/h 29.0 mph /  46.7 km/h 61 % 0.00 in /  0 mm
22:31 20.0 °F /  -6.7 °C 8.7 °F /  -12.9 °C 30.53 in /  1033.7 hPa West 6.0 mph /  9.7 km/h 29.0 mph /  46.7 km/h 61 % 0.00 in /  0 mm
22:36 20.0 °F /  -6.7 °C 8.7 °F /  -12.9 °C 30.53 in /  1033.7 hPa West 7.7 mph /  12.4 km/h 29.0 mph /  46.7 km/h 61 % 0.00 in /  0 mm
22:41 19.8 °F /  -6.8 °C 8.5 °F /  -13.1 °C 30.53 in /  1033.7 hPa NW 9.2 mph /  14.8 km/h 29.0 mph /  46.7 km/h 61 % 0.00 in /  0 mm
22:46 19.8 °F /  -6.8 °C 8.9 °F /  -12.8 °C 30.53 in /  1033.7 hPa West 8.7 mph /  14 km/h 29.0 mph /  46.7 km/h 62 % 0.00 in /  0 mm
22:51 19.7 °F /  -6.8 °C 8.8 °F /  -12.9 °C 30.54 in /  1034.1 hPa NW 7.7 mph /  12.4 km/h 29.0 mph /  46.7 km/h 62 % 0.00 in /  0 mm
22:56 19.7 °F /  -6.8 °C 8.8 °F /  -12.9 °C 30.54 in /  1034.1 hPa NW 8.1 mph /  13 km/h 29.0 mph /  46.7 km/h 62 % 0.00 in /  0 mm
23:01 19.6 °F /  -6.9 °C 8.7 °F /  -12.9 °C 30.54 in /  1034.1 hPa WNW 8.4 mph /  13.5 km/h 29.0 mph /  46.7 km/h 62 % 0.00 in /  0 mm
23:06 19.6 °F /  -6.9 °C 9.0 °F /  -12.8 °C 30.54 in /  1034.1 hPa WNW 8.1 mph /  13 km/h 29.0 mph /  46.7 km/h 63 % 0.00 in /  0 mm
23:11 19.6 °F /  -6.9 °C 8.7 °F /  -12.9 °C 30.54 in /  1034.1 hPa NW 7.8 mph /  12.6 km/h 29.0 mph /  46.7 km/h 62 % 0.00 in /  0 mm
23:16 19.5 °F /  -6.9 °C 8.6 °F /  -13 °C 30.54 in /  1034.1 hPa WNW 6.5 mph /  10.5 km/h 29.0 mph /  46.7 km/h 62 % 0.00 in /  0 mm
23:22 19.5 °F /  -6.9 °C 8.6 °F /  -13 °C 30.54 in /  1034.1 hPa NW 5.7 mph /  9.2 km/h 29.0 mph /  46.7 km/h 62 % 0.00 in /  0 mm
23:27 19.5 °F /  -6.9 °C 8.9 °F /  -12.8 °C 30.55 in /  1034.4 hPa WNW 9.2 mph /  14.8 km/h 29.0 mph /  46.7 km/h 63 % 0.00 in /  0 mm
23:32 19.4 °F /  -7 °C 8.8 °F /  -12.9 °C 30.54 in /  1034.1 hPa SW 10.2 mph /  16.4 km/h 29.0 mph /  46.7 km/h 63 % 0.00 in /  0 mm
23:37 19.4 °F /  -7 °C 8.8 °F /  -12.9 °C 30.54 in /  1034.1 hPa NW 7.4 mph /  11.9 km/h 29.0 mph /  46.7 km/h 63 % 0.00 in /  0 mm
23:42 19.3 °F /  -7.1 °C 9.1 °F /  -12.7 °C 30.55 in /  1034.4 hPa NW 7.9 mph /  12.7 km/h 29.0 mph /  46.7 km/h 64 % 0.00 in /  0 mm
23:47 19.4 °F /  -7 °C 9.2 °F /  -12.7 °C 30.54 in /  1034.1 hPa West 6.9 mph /  11.1 km/h 29.0 mph /  46.7 km/h 64 % 0.00 in /  0 mm
23:52 19.3 °F /  -7.1 °C 8.8 °F /  -12.9 °C 30.55 in /  1034.4 hPa West 6.7 mph /  10.8 km/h 29.0 mph /  46.7 km/h 63 % 0.00 in /  0 mm
23:57 19.3 °F /  -7.1 °C 8.8 °F /  -12.9 °C 30.55 in /  1034.4 hPa WNW 4.2 mph /  6.8 km/h 29.0 mph /  46.7 km/h 63 % 0.00 in /  0 mm
Crab Meadow Weather
Compliments of Weather Underground - 2.75 mb

Script developed by  Jim McMurry - jmcmurry@mwt.net Adapted for the template by  Wim van der Kuil - Leuven-Template.eu

Astronomy: The Sun is around 4.5 billion years old.